SCP
-0 -0 -0 -0 -0 -0 -0 -0 0 0 0 0 0 0 0 0 0 0 0 0 0 0 0 0 0 0 0 0 0 0 0 0 0 0 0 0 0 0 0 0 0 0 0
-0 -0 -0 -0 -0 -0 -0 -0 -0 -0 0 0 0 0 0 0 0 0 0 0 0 0 0 0 0 0 0 0 0 0 0 0 0 0 0 0 0 0 0 0 0 0 0
-0 -0 -0 -0 -0 -0 0 -0 -0 -0 -0 -0 -0 0 0 0 0 0 0 0 0 0 0 0 0 0 0 0 0 0 0 0 0 0 0 0 0 0 0 0 0 0 0
-0 -0 -0 -0 -0 0 0 0 0 0 -0 -0 -0 -0 0 0 0 0 0 0 0 0 0 0 0 0 0 0 0 0 0 0 0 0 0 0 0 0 0 0 0 0 0
0 0 0 0 0 0 0 0 0 0 0 0 0 0 0 0 0 0 0 0 0 0 0 0 0 0 0 0 0 0 0 0 0 0 0 0 0 0 0 0 0 0 0
0 0 0 0 0 0 0 0 0 0 -0 -0 0 0 0 0 0 0 0 0 0 0 0 0 0 0 0 0 0 0 0 0 0 0 0 0 0 0 0 0 0 0 0
0 0 0 0 0 0 0 0 0 0 0 -0 -0 -0 -0 0 0 0 0 0 0 0 0 0 0 0 0 0 0 0 0 0 0 0 0 0 0 0 0 0 0 0 0
0 0 0 0 0 0 0 0 0 0 0 0 0 0 0 0 -0 0 0 0 0 0 0 0 0 0 0 0 0 0 0 0 0 0 0 0 0 0 0 0 0 0 0
0 0 0 0 0 0 0 0 0 0 0 0 0 0 0 0 -0 0 0 0 0 0 0 0 0 0 0 0 0 0 0 0 0 0 0 0 0 0 0 0 0 0 0
0 0 0 0 0 0 0 0 0 0 0 0 0 0 0 0 -0 0 0 0 0 0 0 0 -0 0 0 0 0 0 0 0 0 0 0 0 0 0 0 0 0 0 0
0 0 0 0 0 0 0 0 0 0 0 0 0 0 0 0 -0 -0 0 0 0 0 0 0 0 -0 -0 0 0 0 0 0 0 0 0 0 0 0 0 0 0 0 0
0 0 0 0 0 0 0 0 0 0 0 0 0 0 0 0 -0 -0 0 0 0 0 0 0 0 0 -0 -0 0 0 0 0 0 0 0 0 0 0 0 0 0 0 0
0 0 0 0 0 0 0 0 0 0 0 0 0 0 0 0 0 -0 0 0 0 0 0 0 0 0 0 0 0 0 0 0 0 0 0 0 0 0 0 0 0 0 0
0 0 0 0 0 0 0 0 0 0 0 0 0 0 0 0 0 0 0 0 0 0 0 0 0 0 0 0 0 0 0 0 0 0 0 0 0 0 0 0 0 0 0
0 0 0 0 0 0 0 0 0 0 0 0 0 0 0 0 0 0 0 0 0 0 0 0 0 0 0 0 0 0 0 0 0 0 0 0 0 0 0 0 0 0 0
0 0 0 0 0 0 0 0 0 0 0 0 -0 0 0 0 0 0 0 0 0 0 0 0 0 0 0 0 0 0 0 0 0 0 0 0 0 0 0 0 0 0 0
0 0 0 0 0 0 0 0 0 0 0 0 0 0 0 0 0 0 0 0 0 0 0 0 0 0 0 0 0 0 0 0 0 0 0 0 0 0 0 0 0 0 0
0 0 0 0 0 0 0 0 0 0 0 0 0 0 0 0 -0 0 0 0 0 0 0 0 0 0 0 0 0 0 0 0 0 0 0 0 0 0 0 0 0 0 0
0 0 0 0 0 0 0 0 0 0 0 0 0 0 0 0 -0 0 0 0 0 0 0 0 0 0 0 0 0 0 0 0 0 0 0 0 0 0 0 0 0 0 0
0 0 0 0 0 0 0 0 0 0 0 0 0 0 0 0 0 0 0 0 0 0 0 0 0 0 0 0 0 0 0 0 0 0 0 0 0 0 0 0 0 0 0
0 0 0 0 0 0 0 0 0 0 0 0 0 0 -0 0 0 0 0 0 0 0 0 0 0 0 0 0 0 0 0 0 0 0 0 0 0 0 0 0 0 0 0
0 0 0 0 0 0 0 0 0 0 0 0 0 0 -0 0 0 0 0 0 0 0 0 0 0 0 0 0 0 0 0 0 0 0 0 0 0 0 0 0 0 0 0
0 0 0 0 0 0 0 0 0 0 0 0 0 0 0 0 0 -0 -0 -0 0 0 0 0 0 0 0 0 0 0 0 0 0 0 0 0 0 0 0 0 0 0 0
0 0 0 0 0 0 0 0 0 0 0 0 0 0 0 0 0 -0 -0 -0 -0 -0 0 0 0 0 0 0 0 0 0 0 0 0 0 0 0 0 0 0 0 0 0
0 0 0 0 0 0 0 0 0 0 0 0 0 0 0 0 0 0 0 -0 -0 -0 -0 -0 0 0 0 0 0 0 0 0 0 0 0 0 0 0 0 0 0 0 0
0 0 0 0 0 0 0 0 0 0 0 0 0 0 0 0 0 0 -0 -0 -0 -0 -0 -0 -0 -0 0 0 0 0 0 0 0 0 0 0 0 0 0 0 0 0 0
Wind_Speed_500mb
40 41 41 48 53 48 45 43 43 45 48 52 54 53 52 49 47 57 64 71 75 82 87 98 109 109 113 116 113 117 121 116 106 90 84 80 82 79 81 86 82 79 74
53 56 60 56 54 55 56 57 57 57 55 54 54 56 59 57 53 49 58 66 75 82 87 89 100 107 108 114 114 120 121 118 109 97 92 92 88 84 81 81 84 84 79
60 61 61 59 62 64 62 61 63 66 65 64 61 56 56 59 62 57 55 57 67 79 86 92 95 103 112 112 117 121 124 123 119 111 100 98 94 88 86 87 86 84 83
62 64 66 68 70 73 75 72 70 68 69 68 66 67 64 60 61 63 60 59 61 69 79 87 93 99 107 108 112 115 118 124 121 120 115 107 104 99 94 95 93 91 90
67 69 70 75 79 82 85 89 89 88 83 80 78 75 74 73 68 63 66 69 68 70 71 77 88 92 99 106 112 114 118 117 115 118 124 115 111 107 109 102 101 96 93
70 74 77 78 80 83 87 92 96 98 98 98 96 90 87 81 77 74 69 69 74 77 80 80 83 88 92 93 109 111 112 116 116 111 122 131 132 128 114 113 108 102 96
67 78 88 84 85 90 93 96 99 100 101 103 105 106 103 99 93 89 80 79 79 81 83 83 85 89 89 90 94 107 113 120 119 121 124 129 122 140 130 120 116 109 103
81 79 84 89 92 97 96 96 98 101 106 111 113 112 114 117 111 104 102 96 90 90 88 87 87 87 87 89 90 98 106 121 131 127 125 116 119 124 133 131 126 114 101
83 77 77 80 85 89 96 106 111 116 120 120 123 125 126 127 122 121 114 104 106 101 97 96 90 88 88 84 89 99 105 108 120 126 121 114 115 115 109 118 119 111 103
76 79 81 81 85 87 92 99 104 105 113 121 134 138 136 139 136 129 120 95 103 115 106 102 97 90 84 80 84 98 103 112 103 105 108 111 109 117 113 109 114 122 111
87 89 95 99 97 97 99 99 96 96 103 111 117 138 148 150 148 137 126 86 96 102 105 105 100 90 84 80 73 88 113 104 89 95 94 100 107 114 113 106 109 111 116
109 108 110 112 113 112 108 110 103 97 103 110 110 116 116 116 114 113 96 82 81 84 94 98 95 82 76 77 75 76 89 97 89 92 93 101 107 112 110 110 111 101 101
111 111 109 108 105 99 94 92 89 83 85 91 91 99 106 99 96 89 81 81 83 82 88 92 81 74 76 75 78 75 72 97 94 95 106 106 113 107 103 99 98 96 91
105 103 97 92 90 85 83 82 80 79 79 81 83 87 91 93 93 88 73 71 46 58 74 82 77 73 74 82 78 77 74 94 99 102 102 98 91 96 107 116 106 93 86
93 91 89 85 83 86 84 81 79 80 80 86 90 93 95 96 90 87 84 81 72 73 68 70 73 68 62 67 78 81 76 84 96 99 96 90 91 96 95 95 99 103 98
87 86 85 87 88 85 85 88 75 73 75 78 82 87 97 98 95 92 90 86 82 78 84 87 81 71 71 67 77 79 79 77 87 92 91 93 96 97 94 93 95 94 88
81 83 84 85 86 85 84 83 90 92 77 76 77 79 80 85 83 81 79 76 73 72 83 86 83 73 66 67 76 77 71 75 79 93 97 93 96 99 102 98 90 87 78
77 78 79 81 83 84 86 87 89 91 94 95 92 75 73 72 72 71 69 67 73 69 78 78 81 67 65 67 69 69 68 74 80 92 95 95 96 98 90 89 89 86 79
77 77 77 77 79 81 85 86 86 85 89 96 99 85 72 59 58 59 55 62 68 65 62 51 60 60 60 60 60 65 70 77 88 91 90 89 89 85 81 83 81 77 73
73 71 72 75 79 81 80 81 83 80 83 86 80 76 72 61 68 70 63 39 43 48 52 51 53 50 57 48 57 65 69 78 82 84 83 78 74 74 78 78 74 69 63
71 71 66 65 69 70 74 79 72 72 68 69 67 65 56 58 61 55 46 51 35 33 38 33 36 49 43 45 56 62 67 72 73 70 66 64 68 72 71 70 66 57 52
60 60 61 61 63 64 62 58 60 59 62 66 60 57 49 42 40 36 29 7 12 4 11 27 42 40 35 41 50 55 59 61 62 60 59 62 65 62 59 58 59 56 54
57 56 56 56 56 55 55 53 52 49 50 46 43 44 41 34 27 21 14 13 9 8 25 35 33 31 29 29 30 34 43 49 52 53 56 58 58 60 60 59 57 52 44
53 52 53 53 54 54 52 54 52 47 47 44 41 38 34 29 24 20 17 14 9 9 14 19 19 17 19 19 21 25 30 38 44 48 51 57 60 57 54 50 44 38 34
54 52 52 54 55 56 56 54 53 50 48 46 45 42 38 33 31 29 26 23 22 21 22 20 21 20 17 16 20 23 25 31 40 45 48 49 49 47 43 39 35 31 27
55 54 54 54 55 56 59 60 58 57 56 53 51 50 49 48 45 42 39 35 35 34 32 32 30 29 32 35 36 37 39 41 43 42 41 40 37 36 32 28 27 24 19
Wind_Direction_500mb
347 348 348 356 356 351 349 345 338 331 325 322 323 321 318 314 301 286 279 277 273 267 262 259 259 257 251 248 247 246 243 239 238 242 241 243 242 240 237 236 234 233 234
337 339 342 343 339 336 336 335 333 331 330 329 325 320 318 316 313 302 285 277 273 272 268 263 259 257 252 249 246 244 243 239 236 236 240 238 238 239 240 235 234 231 231
334 332 329 330 326 324 323 322 323 325 326 325 325 323 318 316 315 311 305 290 277 270 268 267 264 260 257 252 248 246 244 243 239 235 235 237 239 236 235 232 231 232 231
326 322 320 320 317 316 314 314 313 314 314 315 316 316 316 315 312 314 313 305 293 278 271 266 264 261 258 254 249 247 246 245 243 239 234 233 236 234 231 230 226 226 228
320 318 315 312 311 312 311 311 310 309 308 308 308 309 309 309 311 310 310 311 305 297 285 274 268 263 258 257 253 249 245 244 241 237 233 229 229 224 223 229 228 230 229
313 312 311 308 306 304 305 304 303 303 303 303 304 303 303 302 303 306 308 306 306 303 295 289 279 271 263 256 253 251 247 245 238 232 232 230 231 232 229 228 227 225 225
291 295 303 304 300 299 300 299 298 297 296 296 296 298 299 298 299 300 300 301 302 299 299 293 289 280 273 264 257 251 247 246 244 242 236 237 229 233 231 230 227 231 237
297 292 292 296 298 300 299 297 295 294 294 294 293 292 292 292 294 295 297 297 295 296 297 295 288 286 280 269 261 257 252 246 245 242 243 243 243 245 239 240 239 235 231
302 295 292 290 288 289 289 291 292 292 291 288 287 287 288 286 287 289 291 290 290 291 292 293 291 284 283 276 257 255 254 254 248 245 244 244 243 245 244 234 226 224 222
300 296 292 288 288 286 283 282 283 283 285 286 287 284 284 283 281 282 285 283 283 286 288 288 288 285 280 284 262 252 249 253 249 242 239 237 237 238 238 238 238 229 223
301 295 293 291 288 285 283 280 282 282 280 279 278 282 285 286 284 282 284 280 277 279 281 282 284 283 280 282 274 260 251 254 243 239 238 228 229 231 231 231 233 232 226
305 303 301 299 298 296 294 293 288 283 281 280 280 280 281 285 286 286 285 279 273 268 269 275 278 278 270 270 264 264 257 246 238 232 225 220 222 222 224 225 225 223 225
307 307 307 306 306 307 305 303 297 290 284 282 281 280 282 283 283 285 283 280 272 262 262 267 272 271 269 268 264 260 253 241 227 225 221 220 221 222 219 218 217 214 214
310 310 311 310 311 311 310 306 299 292 288 285 284 284 284 284 285 287 286 272 271 268 262 269 273 272 266 262 259 255 238 237 225 224 221 218 213 210 217 222 217 209 206
313 312 311 311 310 307 303 300 296 295 292 290 289 287 285 284 284 287 284 282 280 268 281 282 282 282 274 264 248 244 242 235 223 222 218 211 207 206 205 205 206 204 198
313 312 310 309 309 306 303 302 299 292 291 288 287 286 287 285 286 283 279 275 272 271 271 270 271 268 273 260 244 234 237 235 221 216 208 207 204 199 199 198 207 205 203
316 315 314 313 310 307 304 300 297 304 298 295 294 291 288 288 286 283 279 275 271 267 260 262 262 257 266 252 243 234 230 226 220 209 208 204 204 203 206 204 202 201 199
322 320 319 318 314 311 307 302 298 294 295 299 310 301 297 294 290 285 281 275 270 261 255 261 258 249 260 249 242 232 224 219 213 207 204 203 203 204 202 200 197 196 194
325 324 324 323 321 318 314 310 303 297 295 300 309 315 316 307 298 293 286 272 265 263 268 249 252 257 248 241 238 229 222 210 202 198 199 201 203 204 200 200 197 194 192
327 328 330 328 326 321 318 313 310 306 305 310 315 324 329 330 328 329 330 318 286 268 256 254 245 246 231 237 231 218 205 198 195 196 198 200 203 206 202 196 195 190 188
333 333 332 331 331 330 326 321 314 323 326 326 329 338 324 317 318 329 326 313 288 256 231 242 239 222 225 225 216 207 202 196 198 198 199 200 199 196 196 193 188 186 180
337 338 339 338 339 336 331 333 333 335 336 334 335 340 340 339 330 322 327 62 66 142 230 223 209 210 220 216 209 205 202 200 199 199 197 194 192 191 189 182 178 175 175
348 344 345 348 348 347 348 346 346 344 340 340 340 336 340 345 348 355 20 53 80 159 190 193 198 197 198 202 206 210 209 206 205 201 192 189 185 181 178 176 176 180 181
357 357 355 357 360 0 1 1 360 1 4 3 5 7 10 15 24 27 33 45 65 112 147 161 161 165 166 171 181 189 196 197 194 188 187 181 174 171 172 176 179 178 175
10 9 8 8 9 12 15 16 18 20 21 23 25 29 33 38 43 48 52 61 74 89 99 108 116 121 128 142 152 159 165 170 170 168 170 169 166 166 170 173 174 176 181
18 18 18 19 22 24 28 30 33 35 37 39 42 46 49 52 56 59 64 71 79 85 90 93 94 100 107 111 114 120 128 139 145 149 152 155 159 162 165 168 174 180 184
Wind_Speed_850mb
40 41 41 48 53 48 45 43 43 45 48 52 54 53 52 49 47 57 64 71 75 82 87 98 109 109 113 116 113 117 121 116 106 90 84 80 82 79 81 86 82 79 74
53 56 60 56 54 55 56 57 57 57 55 54 54 56 59 57 53 49 58 66 75 82 87 89 100 107 108 114 114 120 121 118 109 97 92 92 88 84 81 81 84 84 79
60 61 61 59 62 64 62 61 63 66 65 64 61 56 56 59 62 57 55 57 67 79 86 92 95 103 112 112 117 121 124 123 119 111 100 98 94 88 86 87 86 84 83
62 64 66 68 70 73 75 72 70 68 69 68 66 67 64 60 61 63 60 59 61 69 79 87 93 99 107 108 112 115 118 124 121 120 115 107 104 99 94 95 93 91 90
67 69 70 75 79 82 85 89 89 88 83 80 78 75 74 73 68 63 66 69 68 70 71 77 88 92 99 106 112 114 118 117 115 118 124 115 111 107 109 102 101 96 93
70 74 77 78 80 83 87 92 96 98 98 98 96 90 87 81 77 74 69 69 74 77 80 80 83 88 92 93 109 111 112 116 116 111 122 131 132 128 114 113 108 102 96
67 78 88 84 85 90 93 96 99 100 101 103 105 106 103 99 93 89 80 79 79 81 83 83 85 89 89 90 94 107 113 120 119 121 124 129 122 140 130 120 116 109 103
81 79 84 89 92 97 96 96 98 101 106 111 113 112 114 117 111 104 102 96 90 90 88 87 87 87 87 89 90 98 106 121 131 127 125 116 119 124 133 131 126 114 101
83 77 77 80 85 89 96 106 111 116 120 120 123 125 126 127 122 121 114 104 106 101 97 96 90 88 88 84 89 99 105 108 120 126 121 114 115 115 109 118 119 111 103
76 79 81 81 85 87 92 99 104 105 113 121 134 138 136 139 136 129 120 95 103 115 106 102 97 90 84 80 84 98 103 112 103 105 108 111 109 117 113 109 114 122 111
87 89 95 99 97 97 99 99 96 96 103 111 117 138 148 150 148 137 126 86 96 102 105 105 100 90 84 80 73 88 113 104 89 95 94 100 107 114 113 106 109 111 116
109 108 110 112 113 112 108 110 103 97 103 110 110 116 116 116 114 113 96 82 81 84 94 98 95 82 76 77 75 76 89 97 89 92 93 101 107 112 110 110 111 101 101
111 111 109 108 105 99 94 92 89 83 85 91 91 99 106 99 96 89 81 81 83 82 88 92 81 74 76 75 78 75 72 97 94 95 106 106 113 107 103 99 98 96 91
105 103 97 92 90 85 83 82 80 79 79 81 83 87 91 93 93 88 73 71 46 58 74 82 77 73 74 82 78 77 74 94 99 102 102 98 91 96 107 116 106 93 86
93 91 89 85 83 86 84 81 79 80 80 86 90 93 95 96 90 87 84 81 72 73 68 70 73 68 62 67 78 81 76 84 96 99 96 90 91 96 95 95 99 103 98
87 86 85 87 88 85 85 88 75 73 75 78 82 87 97 98 95 92 90 86 82 78 84 87 81 71 71 67 77 79 79 77 87 92 91 93 96 97 94 93 95 94 88
81 83 84 85 86 85 84 83 90 92 77 76 77 79 80 85 83 81 79 76 73 72 83 86 83 73 66 67 76 77 71 75 79 93 97 93 96 99 102 98 90 87 78
77 78 79 81 83 84 86 87 89 91 94 95 92 75 73 72 72 71 69 67 73 69 78 78 81 67 65 67 69 69 68 74 80 92 95 95 96 98 90 89 89 86 79
77 77 77 77 79 81 85 86 86 85 89 96 99 85 72 59 58 59 55 62 68 65 62 51 60 60 60 60 60 65 70 77 88 91 90 89 89 85 81 83 81 77 73
73 71 72 75 79 81 80 81 83 80 83 86 80 76 72 61 68 70 63 39 43 48 52 51 53 50 57 48 57 65 69 78 82 84 83 78 74 74 78 78 74 69 63
71 71 66 65 69 70 74 79 72 72 68 69 67 65 56 58 61 55 46 51 35 33 38 33 36 49 43 45 56 62 67 72 73 70 66 64 68 72 71 70 66 57 52
60 60 61 61 63 64 62 58 60 59 62 66 60 57 49 42 40 36 29 7 12 4 11 27 42 40 35 41 50 55 59 61 62 60 59 62 65 62 59 58 59 56 54
57 56 56 56 56 55 55 53 52 49 50 46 43 44 41 34 27 21 14 13 9 8 25 35 33 31 29 29 30 34 43 49 52 53 56 58 58 60 60 59 57 52 44
53 52 53 53 54 54 52 54 52 47 47 44 41 38 34 29 24 20 17 14 9 9 14 19 19 17 19 19 21 25 30 38 44 48 51 57 60 57 54 50 44 38 34
54 52 52 54 55 56 56 54 53 50 48 46 45 42 38 33 31 29 26 23 22 21 22 20 21 20 17 16 20 23 25 31 40 45 48 49 49 47 43 39 35 31 27
55 54 54 54 55 56 59 60 58 57 56 53 51 50 49 48 45 42 39 35 35 34 32 32 30 29 32 35 36 37 39 41 43 42 41 40 37 36 32 28 27 24 19
Wind_Direction_850mb
347 348 348 356 356 351 349 345 338 331 325 322 323 321 318 314 301 286 279 277 273 267 262 259 259 257 251 248 247 246 243 239 238 242 241 243 242 240 237 236 234 233 234
337 339 342 343 339 336 336 335 333 331 330 329 325 320 318 316 313 302 285 277 273 272 268 263 259 257 252 249 246 244 243 239 236 236 240 238 238 239 240 235 234 231 231
334 332 329 330 326 324 323 322 323 325 326 325 325 323 318 316 315 311 305 290 277 270 268 267 264 260 257 252 248 246 244 243 239 235 235 237 239 236 235 232 231 232 231
326 322 320 320 317 316 314 314 313 314 314 315 316 316 316 315 312 314 313 305 293 278 271 266 264 261 258 254 249 247 246 245 243 239 234 233 236 234 231 230 226 226 228
320 318 315 312 311 312 311 311 310 309 308 308 308 309 309 309 311 310 310 311 305 297 285 274 268 263 258 257 253 249 245 244 241 237 233 229 229 224 223 229 228 230 229
313 312 311 308 306 304 305 304 303 303 303 303 304 303 303 302 303 306 308 306 306 303 295 289 279 271 263 256 253 251 247 245 238 232 232 230 231 232 229 228 227 225 225
291 295 303 304 300 299 300 299 298 297 296 296 296 298 299 298 299 300 300 301 302 299 299 293 289 280 273 264 257 251 247 246 244 242 236 237 229 233 231 230 227 231 237
297 292 292 296 298 300 299 297 295 294 294 294 293 292 292 292 294 295 297 297 295 296 297 295 288 286 280 269 261 257 252 246 245 242 243 243 243 245 239 240 239 235 231
302 295 292 290 288 289 289 291 292 292 291 288 287 287 288 286 287 289 291 290 290 291 292 293 291 284 283 276 257 255 254 254 248 245 244 244 243 245 244 234 226 224 222
300 296 292 288 288 286 283 282 283 283 285 286 287 284 284 283 281 282 285 283 283 286 288 288 288 285 280 284 262 252 249 253 249 242 239 237 237 238 238 238 238 229 223
301 295 293 291 288 285 283 280 282 282 280 279 278 282 285 286 284 282 284 280 277 279 281 282 284 283 280 282 274 260 251 254 243 239 238 228 229 231 231 231 233 232 226
305 303 301 299 298 296 294 293 288 283 281 280 280 280 281 285 286 286 285 279 273 268 269 275 278 278 270 270 264 264 257 246 238 232 225 220 222 222 224 225 225 223 225
307 307 307 306 306 307 305 303 297 290 284 282 281 280 282 283 283 285 283 280 272 262 262 267 272 271 269 268 264 260 253 241 227 225 221 220 221 222 219 218 217 214 214
310 310 311 310 311 311 310 306 299 292 288 285 284 284 284 284 285 287 286 272 271 268 262 269 273 272 266 262 259 255 238 237 225 224 221 218 213 210 217 222 217 209 206
313 312 311 311 310 307 303 300 296 295 292 290 289 287 285 284 284 287 284 282 280 268 281 282 282 282 274 264 248 244 242 235 223 222 218 211 207 206 205 205 206 204 198
313 312 310 309 309 306 303 302 299 292 291 288 287 286 287 285 286 283 279 275 272 271 271 270 271 268 273 260 244 234 237 235 221 216 208 207 204 199 199 198 207 205 203
316 315 314 313 310 307 304 300 297 304 298 295 294 291 288 288 286 283 279 275 271 267 260 262 262 257 266 252 243 234 230 226 220 209 208 204 204 203 206 204 202 201 199
322 320 319 318 314 311 307 302 298 294 295 299 310 301 297 294 290 285 281 275 270 261 255 261 258 249 260 249 242 232 224 219 213 207 204 203 203 204 202 200 197 196 194
325 324 324 323 321 318 314 310 303 297 295 300 309 315 316 307 298 293 286 272 265 263 268 249 252 257 248 241 238 229 222 210 202 198 199 201 203 204 200 200 197 194 192
327 328 330 328 326 321 318 313 310 306 305 310 315 324 329 330 328 329 330 318 286 268 256 254 245 246 231 237 231 218 205 198 195 196 198 200 203 206 202 196 195 190 188
333 333 332 331 331 330 326 321 314 323 326 326 329 338 324 317 318 329 326 313 288 256 231 242 239 222 225 225 216 207 202 196 198 198 199 200 199 196 196 193 188 186 180
337 338 339 338 339 336 331 333 333 335 336 334 335 340 340 339 330 322 327 62 66 142 230 223 209 210 220 216 209 205 202 200 199 199 197 194 192 191 189 182 178 175 175
348 344 345 348 348 347 348 346 346 344 340 340 340 336 340 345 348 355 20 53 80 159 190 193 198 197 198 202 206 210 209 206 205 201 192 189 185 181 178 176 176 180 181
357 357 355 357 360 0 1 1 360 1 4 3 5 7 10 15 24 27 33 45 65 112 147 161 161 165 166 171 181 189 196 197 194 188 187 181 174 171 172 176 179 178 175
10 9 8 8 9 12 15 16 18 20 21 23 25 29 33 38 43 48 52 61 74 89 99 108 116 121 128 142 152 159 165 170 170 168 170 169 166 166 170 173 174 176 181
18 18 18 19 22 24 28 30 33 35 37 39 42 46 49 52 56 59 64 71 79 85 90 93 94 100 107 111 114 120 128 139 145 149 152 155 159 162 165 168 174 180 184